• In Netherlands
  • List of Countries
  • For 7 days
  • Water Temperature
  • Satellite Maps
  • Weather Map
  • Weather Widgets
  • user-avatar
    Login

    Hourly Weather Kalgoorlie

    Today, 24 September, Sunday

    Time Temperature Precipitation Wind Pressure Humidity
    00:00 +12°C° 0 mm 1 mps 726 mmHg 61%
    01:00 +12°C° 0 mm 1 mps 725 mmHg 62%
    02:00 +12°C° 0 mm 0 mps 724 mmHg 63%
    03:00 +13°C° 0 mm 1 mps 724 mmHg 63%
    04:00 +13°C° 0 mm 1 mps 724 mmHg 62%
    05:00 +13°C° 0 mm 1 mps 724 mmHg 61%
    06:00 +13°C° 0.1 mm 2 mps 724 mmHg 61%
    07:00 +14°C° 0.1 mm 2 mps 724 mmHg 61%
    08:00 +13°C° 0.1 mm 3 mps 725 mmHg 61%
    09:00 +14°C° 0.1 mm 4 mps 724 mmHg 54%
    10:00 +16°C° 0.1 mm 5 mps 724 mmHg 47%
    11:00 +19°C° 0.1 mm 6 mps 724 mmHg 40%
    12:00 +18°C° 0 mm 7 mps 723 mmHg 38%
    13:00 +18°C° 0 mm 7 mps 723 mmHg 35%
    14:00 +18°C° 0 mm 7 mps 722 mmHg 33%
    15:00 +18°C° 0 mm 7 mps 722 mmHg 34%
    16:00 +17°C° 0 mm 6 mps 722 mmHg 36%
    17:00 +17°C° 0 mm 6 mps 722 mmHg 37%
    18:00 +17°C° 0 mm 5 mps 722 mmHg 41%
    19:00 +17°C° 0 mm 4 mps 722 mmHg 45%
    20:00 +17°C° 0 mm 3 mps 722 mmHg 49%
    21:00 +15°C° 0.1 mm 4 mps 722 mmHg 51%
    22:00 +15°C° 0.1 mm 4 mps 722 mmHg 54%
    23:00 +15°C° 0.1 mm 4 mps 722 mmHg 57%

    Tomorrow, 25 September, Monday

    Time Temperature Precipitation Wind Pressure Humidity
    00:00 +14°C° 0.2 mm 5 mps 722 mmHg 61%
    01:00 +14°C° 0.2 mm 6 mps 721 mmHg 65%
    02:00 +13°C° 0.2 mm 6 mps 721 mmHg 70%
    03:00 +13°C° 0.2 mm 6 mps 721 mmHg 71%
    04:00 +11°C° 0.2 mm 6 mps 722 mmHg 72%
    05:00 +12°C° 0.2 mm 5 mps 722 mmHg 73%
    06:00 +13°C° 0 mm 6 mps 722 mmHg 67%
    07:00 +12°C° 0 mm 8 mps 722 mmHg 61%
    08:00 +13°C° 0 mm 9 mps 722 mmHg 55%
    09:00 +13°C° 0.2 mm 9 mps 722 mmHg 52%
    10:00 +15°C° 0.2 mm 9 mps 722 mmHg 49%
    11:00 +16°C° 0.2 mm 10 mps 722 mmHg 46%
    12:00 +16°C° 0.1 mm 10 mps 721 mmHg 43%
    13:00 +17°C° 0.1 mm 10 mps 721 mmHg 39%
    14:00 +18°C° 0.1 mm 10 mps 720 mmHg 36%
    15:00 +17°C° 0.1 mm 9 mps 720 mmHg 37%
    16:00 +17°C° 0.1 mm 9 mps 720 mmHg 39%
    17:00 +16°C° 0.1 mm 8 mps 720 mmHg 40%
    18:00 +16°C° 0.2 mm 7 mps 721 mmHg 45%
    19:00 +15°C° 0.2 mm 6 mps 721 mmHg 49%
    20:00 +14°C° 0.2 mm 5 mps 721 mmHg 53%
    21:00 +14°C° 0.2 mm 5 mps 721 mmHg 57%
    22:00 +13°C° 0.2 mm 5 mps 721 mmHg 61%
    23:00 +13°C° 0.2 mm 5 mps 721 mmHg 65%

    Day after tomorrow, 26 September, Tuesday

    Time Temperature Precipitation Wind Pressure Humidity
    00:00 +12°C° 0 mm 5 mps 721 mmHg 69%
    01:00 +10°C° 0 mm 5 mps 721 mmHg 73%
    02:00 +9°C° 0 mm 6 mps 721 mmHg 78%
    03:00 +9°C° 0 mm 6 mps 721 mmHg 79%
    04:00 +8°C° 0 mm 6 mps 722 mmHg 81%
    05:00 +7°C° 0 mm 6 mps 722 mmHg 82%
    06:00 +8°C° 0 mm 6 mps 723 mmHg 78%
    07:00 +9°C° 0 mm 7 mps 724 mmHg 73%
    08:00 +10°C° 0 mm 7 mps 724 mmHg 69%
    09:00 +11°C° 0.1 mm 7 mps 725 mmHg 64%
    10:00 +12°C° 0.1 mm 7 mps 725 mmHg 60%
    11:00 +14°C° 0.1 mm 6 mps 725 mmHg 55%
    12:00 +15°C° 0.1 mm 6 mps 725 mmHg 51%
    13:00 +15°C° 0.1 mm 6 mps 725 mmHg 46%
    14:00 +16°C° 0.1 mm 6 mps 725 mmHg 42%
    15:00 +16°C° 0 mm 6 mps 725 mmHg 41%
    16:00 +16°C° 0 mm 7 mps 726 mmHg 40%
    17:00 +15°C° 0 mm 7 mps 726 mmHg 39%
    18:00 +14°C° 0 mm 6 mps 727 mmHg 41%
    19:00 +13°C° 0 mm 5 mps 728 mmHg 43%
    20:00 +12°C° 0 mm 5 mps 729 mmHg 45%
    21:00 +12°C° 0 mm 5 mps 729 mmHg 48%
    22:00 +10°C° 0 mm 5 mps 729 mmHg 51%
    23:00 +9°C° 0 mm 5 mps 730 mmHg 54%

    27 September, Wednesday

    Time Temperature Precipitation Wind Pressure Humidity
    00:00 +9°C° 0 mm 5 mps 730 mmHg 59%
    01:00 +8°C° 0 mm 4 mps 730 mmHg 64%
    02:00 +7°C° 0 mm 4 mps 730 mmHg 69%
    03:00 +7°C° 0 mm 4 mps 730 mmHg 73%
    04:00 +6°C° 0 mm 4 mps 731 mmHg 76%
    05:00 +7°C° 0 mm 3 mps 731 mmHg 80%
    06:00 +7°C° 0 mm 4 mps 732 mmHg 72%
    07:00 +8°C° 0 mm 4 mps 732 mmHg 64%
    08:00 +10°C° 0 mm 4 mps 733 mmHg 57%
    09:00 +11°C° 0 mm 4 mps 733 mmHg 49%
    10:00 +13°C° 0 mm 4 mps 733 mmHg 42%
    11:00 +14°C° 0 mm 4 mps 733 mmHg 34%
    12:00 +15°C° 0 mm 4 mps 732 mmHg 31%
    13:00 +17°C° 0 mm 4 mps 732 mmHg 28%
    14:00 +18°C° 0 mm 4 mps 731 mmHg 25%
    15:00 +18°C° 0 mm 4 mps 731 mmHg 25%
    16:00 +18°C° 0 mm 3 mps 731 mmHg 25%
    17:00 +18°C° 0 mm 3 mps 731 mmHg 24%
    18:00 +17°C° 0 mm 3 mps 732 mmHg 27%
    19:00 +16°C° 0 mm 3 mps 732 mmHg 30%
    20:00 +15°C° 0 mm 2 mps 733 mmHg 33%
    21:00 +14°C° 0 mm 2 mps 733 mmHg 35%
    22:00 +13°C° 0 mm 2 mps 733 mmHg 38%
    23:00 +13°C° 0 mm 2 mps 733 mmHg 41%

    28 September, Thursday

    Time Temperature Precipitation Wind Pressure Humidity
    00:00 +12°C° 0 mm 2 mps 733 mmHg 45%
    01:00 +10°C° 0 mm 2 mps 732 mmHg 48%
    02:00 +10°C° 0 mm 2 mps 732 mmHg 52%
    03:00 +9°C° 0 mm 2 mps 732 mmHg 54%
    04:00 +9°C° 0 mm 2 mps 732 mmHg 57%
    05:00 +8°C° 0 mm 2 mps 732 mmHg 60%
    06:00 +10°C° 0 mm 2 mps 733 mmHg 55%
    07:00 +12°C° 0 mm 2 mps 733 mmHg 51%
    08:00 +13°C° 0 mm 2 mps 733 mmHg 47%
    09:00 +15°C° 0 mm 2 mps 733 mmHg 42%
    10:00 +16°C° 0 mm 3 mps 733 mmHg 37%
    11:00 +17°C° 0 mm 4 mps 732 mmHg 32%
    12:00 +17°C° 0 mm 5 mps 732 mmHg 29%
    13:00 +19°C° 0 mm 5 mps 731 mmHg 27%
    14:00 +20°C° 0 mm 6 mps 731 mmHg 25%
    15:00 +19°C° 0 mm 6 mps 731 mmHg 27%
    16:00 +19°C° 0 mm 6 mps 731 mmHg 30%
    17:00 +17°C° 0 mm 7 mps 731 mmHg 32%
    18:00 +16°C° 0 mm 6 mps 732 mmHg 35%
    19:00 +15°C° 0 mm 5 mps 732 mmHg 37%
    20:00 +15°C° 0 mm 4 mps 733 mmHg 40%
    21:00 +14°C° 0 mm 5 mps 733 mmHg 47%
    22:00 +13°C° 0 mm 6 mps 733 mmHg 54%
    23:00 +11°C° 0 mm 7 mps 733 mmHg 61%

    29 September, Friday

    Time Temperature Precipitation Wind Pressure Humidity
    00:00 +10°C° 0 mm 6 mps 733 mmHg 67%
    01:00 +9°C° 0 mm 6 mps 733 mmHg 73%
    02:00 +8°C° 0 mm 5 mps 733 mmHg 80%
    03:00 +7°C° 0 mm 5 mps 734 mmHg 81%
    04:00 +7°C° 0 mm 5 mps 734 mmHg 82%
    05:00 +6°C° 0 mm 5 mps 734 mmHg 83%
    06:00 +7°C° 0 mm 5 mps 735 mmHg 74%
    07:00 +8°C° 0 mm 5 mps 735 mmHg 65%
    08:00 +9°C° 0 mm 5 mps 736 mmHg 56%
    09:00 +12°C° 0 mm 5 mps 735 mmHg 48%
    10:00 +13°C° 0 mm 5 mps 735 mmHg 40%
    11:00 +15°C° 0 mm 5 mps 735 mmHg 32%
    12:00 +16°C° 0 mm 5 mps 735 mmHg 30%
    13:00 +17°C° 0 mm 5 mps 734 mmHg 28%
    14:00 +19°C° 0 mm 5 mps 734 mmHg 26%
    15:00 +19°C° 0 mm 5 mps 734 mmHg 28%
    16:00 +19°C° 0 mm 5 mps 734 mmHg 30%
    17:00 +17°C° 0 mm 6 mps 734 mmHg 32%
    18:00 +16°C° 0 mm 6 mps 735 mmHg 37%
    19:00 +15°C° 0 mm 6 mps 735 mmHg 42%
    20:00 +14°C° 0 mm 6 mps 736 mmHg 47%
    21:00 +13°C° 0 mm 5 mps 736 mmHg 51%
    22:00 +13°C° 0 mm 5 mps 736 mmHg 55%
    23:00 +12°C° 0 mm 5 mps 736 mmHg 60%
    Show more